Location: Invercargill
(46.4000°S, 168.3500°E)
Time: 19:08:03
(UTC+12:00)

Cosmos 2151 - Pass Details

Date: 14 May 2021
Orbit: 580 x 602 km, 82.5° (Epoch: 14 June)

Event Time Altitude Azimuth Distance (km) Brightness Sun altitude
Rises 18:58:57 0° 13° (NNE) 2,799 6.4 -16.1°
Reaches altitude 10° 19:01:14 10° 21° (NNE) 1,909 5.5 -16.5°
Maximum altitude 19:05:07 37° 89° (E) 931 3.4 -17.2°
Enters shadow 19:05:43 35° 108° (ESE) 968 3.5 -17.3°
